Location: Nemiskam
(49.4820°N, 111.2775°W)
Time: 08:31:12
(UTC+00:00)

Tiangong - Pass Details

Date: 05 December 2022
Orbit: 382 x 386 km, 41.5° (Epoch: 05 February)

Event Time Altitude Azimuth Distance (km) Brightness Sun altitude
Rises 01:42:58 0° 247° (WSW) 2,250 3.2 -21.1°
Reaches altitude 10° 01:45:24 10° 229° (SW) 1,398 1.5 -21.5°
Enters shadow 01:47:27 19° 188° (S) 985 0.1 -21.9°
